Flag for Brazil Weather past 2 weeks in Porto Velho, Rondônia, Brazil

Now
84 °F

Scattered clouds.


Feels Like: 88 °F
Forecast: 73 / 80 °F
Wind: 3 mph from North

Location: Porto Velho Aeroporto

Current Time: Sep 16, 2014 at 2:15:18 PM

Latest Report: Sep 16, 2014 at 1:00 PM


Visibility: N/A

Pressure: 29.92 "Hg

Humidity: 62%

Dew point: 70 °F

Location of Porto VelhoLocation

Historic Weather in Porto Velho — Graph

°F

Porto Velho temperature yesterday

Maximum temperature yesterday: 84 °F (at 10:00 AM)
Minimum temperature yesterday: 70 °F (at 11:00 PM)
Average temperature yesterday: 75 °F

Past Weeks' High & Low Weather Summary

 TemperatureHumidityPressure
High97 °F (Sep 3, 4:00 PM)94% (Sep 2, 6:00 AM)29.98 "Hg (Sep 2, 6:00 AM)
Low70 °F (Sep 14, 5:00 AM)32% (Sep 6, 4:00 PM)29.65 "Hg (Sep 11, 5:00 PM)
Average81 °F72%29.85 "Hg
* Reported Sep 1 1:00 PM — Sep 16 1:00 PM, Porto Velho, Weather by CustomWeather, © 2014

Note: Actual official high and low records may vary slightly from our data, if they occured in-between our weather recording intervals... More about our weather records

Advertising

Porto Velho weather history for previous 24 hours

 ConditionsComfort  
Time TempWeatherWind HumidityBarometerVisibility
1:00 PM
Sep 16
84 °FScattered clouds.3 mph62%29.92 "HgN/A
12:00 PM82 °FScattered clouds.No wind66%29.95 "HgN/A
11:00 AM81 °FPartly sunny.2 mph70%29.98 "HgN/A
10:00 AM79 °FPartly sunny.No wind79%29.98 "HgN/A
9:00 AM75 °FPartly sunny.No wind83%29.95 "HgN/A
8:00 AM73 °FScattered clouds.No wind94%29.95 "Hg5 mi
7:35 AM73 °FScattered clouds.N/A94%29.95 "HgN/A
7:00 AM72 °FFog.No wind94%29.92 "HgN/A
6:00 AM70 °FFog.No wind94%29.89 "Hg1 mi
5:00 AM72 °FFog.1 mph88%29.89 "Hg2 mi
4:00 AM72 °FFog.No wind94%29.89 "Hg2 mi
3:00 AM72 °FPassing clouds.No wind94%29.92 "Hg5 mi
2:00 AM72 °FPassing clouds.2 mph94%29.92 "Hg5 mi
1:00 AM72 °FPassing clouds.2 mph88%29.92 "HgN/A
12:00 AM72 °FPassing clouds.5 mph94%29.92 "HgN/A
11:00 PM
Sep 15
70 °FPassing clouds.2 mph94%29.92 "HgN/A
10:00 PM72 °FThunderstorms. Passing clouds.5 mph88%N/AN/A
9:00 PMN/AThunderstorms.12 mphN/AN/A3 mi
8:00 PM79 °FPassing clouds.18 mph70%29.92 "HgN/A
7:00 PM75 °FClear.7 mph89%29.83 "Hg10 mi
6:00 PM75 °FScattered clouds.No wind83%29.83 "HgN/A
5:00 PM75 °FScattered clouds.12 mph83%29.80 "HgN/A
4:00 PM75 °FScattered clouds.No wind89%29.80 "HgN/A
3:00 PMN/ALight rain.9 mphN/AN/A3 mi
2:00 PMN/AThunderstorms.N/AN/A29.83 "Hg5 mi
Weather by CustomWeather, © 2014

See weather overviewHow to use our weather pages